Theta_e
312 311 312 312 311 311 311 311 311 311 311 311 311 311 311 311 311 311 311 311 312 312 312 312 313 313 314 314 314 314 313 307 305 305 305 309 319 324 324 325 328 327 327 313 309 311 303 302 303 306 306 306 305 304 308 308 307 302 295 293 291 293 294 298 298 299 300 300 303 305 304 304 303 306 309 314 324 334 335 334 337 340 339 340 342 344 346 346
312 312 311 312 311 312 311 311 311 311 311 311 311 310 310 311 311 311 311 311 312 312 312 312 312 313 313 313 313 314 310 306 304 305 305 316 322 326 330 328 328 329 322 305 303 308 308 301 302 304 304 303 309 303 308 303 308 298 295 293 291 295 298 302 302 302 301 300 305 305 306 305 306 306 315 311 319 330 330 332 335 334 337 341 343 344 345 345
311 312 311 311 311 311 311 311 311 311 310 310 310 310 310 310 311 311 311 311 312 312 312 312 312 312 313 313 313 313 309 304 304 303 310 322 323 326 327 327 325 328 306 302 303 306 311 308 305 305 305 303 304 302 305 302 305 300 296 291 294 299 300 303 304 304 305 304 303 303 305 308 308 309 316 310 310 327 327 327 331 332 333 336 340 343 344 344
311 311 311 311 311 311 311 311 310 311 310 310 310 310 310 310 311 311 311 311 311 311 311 312 312 312 312 312 313 310 306 303 298 305 309 325 324 325 326 324 326 326 306 304 304 304 307 309 307 307 306 303 303 306 301 302 300 299 296 293 296 300 299 302 305 306 305 305 304 303 305 305 310 310 311 310 309 315 325 331 331 331 333 335 339 342 343 342
311 311 311 311 311 311 311 310 311 310 310 310 310 310 310 310 311 312 312 312 312 311 312 311 312 312 312 313 312 309 302 293 295 305 319 331 330 325 325 324 328 315 306 305 304 303 303 303 305 307 305 298 302 302 301 302 305 302 298 300 300 301 299 303 304 307 305 307 304 303 302 303 312 313 310 311 311 310 322 332 335 335 335 336 337 339 341 340
311 311 311 311 311 311 311 311 310 310 310 310 310 311 311 310 311 311 312 312 312 311 311 311 311 312 312 312 309 306 301 284 305 306 333 330 330 326 327 327 328 308 304 302 301 302 302 304 304 301 300 299 298 296 299 301 305 295 297 299 301 302 300 304 305 304 304 305 304 302 304 305 309 306 309 319 318 321 330 333 335 336 338 339 340 339 339 339
311 311 311 310 311 310 311 311 310 310 310 309 310 310 311 310 310 311 311 312 311 311 311 311 311 311 311 311 306 304 300 302 308 312 331 330 326 327 329 330 326 310 306 301 300 299 301 302 303 301 300 300 300 299 302 302 303 299 295 299 301 303 301 304 303 304 303 303 303 305 306 303 306 305 309 319 323 326 328 332 334 337 338 339 338 339 338 337
311 311 311 311 310 310 310 310 310 310 310 310 310 310 310 310 310 310 311 311 311 311 310 310 311 311 311 305 302 300 299 298 306 314 328 331 332 332 326 316 309 306 304 301 300 299 301 300 301 303 299 297 300 300 302 301 302 298 297 301 302 302 303 304 302 303 304 303 304 305 303 302 304 304 308 319 322 325 328 332 334 335 336 337 336 336 336 336
311 311 311 310 310 310 310 310 310 310 309 310 310 310 309 310 310 310 310 310 310 310 310 310 310 311 311 305 299 295 296 307 309 314 327 325 318 323 313 311 309 305 303 303 302 301 301 299 302 303 297 300 303 300 301 299 294 300 299 301 301 302 303 303 303 304 303 305 305 303 302 302 304 307 306 319 323 327 331 333 334 335 334 335 335 336 336 336
311 311 311 311 310 310 310 309 309 309 309 309 310 310 310 310 310 310 311 310 310 310 310 310 310 310 306 302 300 293 304 310 312 313 322 316 316 317 310 311 308 304 301 302 302 301 300 300 302 304 303 302 303 300 302 299 295 302 301 301 301 302 302 304 303 303 304 304 303 302 300 301 304 305 299 320 323 327 330 332 334 333 333 333 334 335 336 336
311 311 311 311 310 310 310 310 309 309 309 309 309 310 310 310 310 310 310 310 310 310 309 310 310 309 302 302 295 294 310 309 310 313 316 313 316 314 309 309 307 303 301 301 301 303 303 303 304 304 303 299 302 300 300 299 302 302 302 300 300 301 301 303 302 302 302 303 304 302 300 301 303 304 299 318 323 326 329 330 331 331 330 331 333 334 336 336
310 310 311 310 310 310 309 309 309 309 309 309 309 309 310 309 309 310 310 310 310 309 309 309 310 306 303 299 296 298 313 311 312 312 311 312 314 314 314 312 308 305 302 300 301 304 305 304 304 302 295 303 296 300 299 303 302 301 301 297 298 299 299 301 300 301 302 301 304 303 300 298 300 300 303 311 323 327 329 329 329 329 330 331 333 333 333 334
310 310 310 310 310 310 309 309 309 309 309 309 309 309 309 309 309 309 309 309 310 309 309 309 308 305 300 293 297 307 310 311 310 310 310 311 311 315 315 312 310 307 305 302 302 304 305 305 304 300 302 300 299 294 301 304 301 301 299 297 297 297 295 299 302 300 300 302 303 302 288 289 297 301 303 309 318 327 326 326 328 329 330 331 331 331 332 333
310 310 310 309 310 310 310 309 309 309 309 309 309 309 309 309 310 310 310 309 309 309 309 309 306 303 298 294 304 310 311 311 312 307 308 310 307 309 310 312 312 311 308 305 305 304 305 305 304 302 304 300 297 305 301 300 302 293 297 298 291 292 289 298 299 299 298 302 303 302 290 290 297 300 306 312 325 325 323 324 326 328 329 330 331 331 332 333
310 309 310 310 309 309 309 309 309 308 309 308 309 309 309 309 309 310 310 310 309 309 309 309 305 300 295 297 306 308 314 313 307 303 303 304 304 303 307 310 311 312 311 309 306 306 306 305 303 300 296 303 302 299 294 294 295 295 291 287 292 289 290 297 300 299 297 301 303 301 293 291 298 299 305 312 325 324 322 323 325 327 328 330 330 331 333 334
310 310 310 310 310 309 309 309 308 308 308 309 308 309 309 309 309 309 310 309 309 309 307 300 300 299 295 291 301 317 311 302 302 306 306 306 305 302 305 309 310 309 309 308 310 310 308 305 299 298 299 300 297 292 291 290 290 293 289 292 290 290 291 294 298 301 301 300 302 299 290 294 296 301 306 310 324 324 322 323 325 327 328 329 330 331 332 331
308 310 309 309 310 309 309 309 308 308 308 308 308 308 309 309 309 310 310 309 307 307 303 296 301 301 289 301 308 302 300 304 309 306 305 306 306 304 303 303 305 305 306 307 308 307 306 302 301 299 300 293 293 294 288 284 286 288 291 287 292 290 291 289 297 300 301 299 297 300 295 295 296 304 305 318 323 323 322 323 325 326 327 328 329 329 327 325
308 309 309 308 308 308 308 309 308 308 308 308 308 307 306 308 309 308 306 307 307 304 302 304 300 296 294 301 294 298 305 304 306 306 304 306 306 304 302 300 304 304 304 302 305 301 303 297 298 290 293 294 294 290 286 282 287 286 287 287 289 292 293 292 292 297 299 300 296 297 296 296 301 303 305 316 321 321 320 321 322 323 324 325 325 324 324 323
307 308 309 309 309 308 308 309 308 308 308 309 308 309 309 309 307 305 300 301 297 293 289 292 293 285 287 297 301 302 304 306 308 306 302 304 305 304 302 302 301 300 298 297 298 300 300 297 298 290 288 289 291 291 289 291 295 293 292 290 291 289 290 291 296 300 300 297 295 295 293 296 298 299 303 309 312 318 318 319 321 322 322 322 322 322 322 322
307 308 308 308 309 309 308 308 308 308 307 305 302 301 300 298 297 295 299 299 295 294 294 295 297 298 298 299 300 306 307 308 302 303 304 305 303 301 299 300 298 300 298 293 296 298 300 291 288 288 289 292 294 295 294 295 296 297 295 293 292 292 293 297 297 300 301 297 295 296 295 297 306 311 315 317 318 318 319 319 320 321 321 321 321 321 322 323
306 307 308 308 308 309 308 308 308 307 308 304 301 297 289 291 291 288 294 295 298 298 295 296 299 296 297 300 301 301 298 301 303 302 303 307 303 299 295 296 293 292 294 298 296 300 298 290 289 292 294 295 295 296 295 295 295 295 294 293 292 293 291 296 297 300 301 297 294 296 295 305 310 313 315 317 318 316 317 318 318 318 319 320 320 321 323 325
306 306 307 308 307 309 308 308 308 307 308 304 300 295 296 297 300 300 296 289 296 298 298 297 298 296 302 302 303 304 302 297 298 301 304 304 300 293 294 294 291 290 295 297 296 293 291 289 292 295 297 297 296 295 295 294 294 295 293 291 290 291 295 297 298 300 300 297 294 296 303 305 310 312 314 315 315 317 319 319 319 319 319 320 321 322 322 323
306 307 308 308 307 308 308 308 307 308 303 300 297 297 295 301 303 304 301 294 291 298 298 297 295 295 295 299 300 302 295 293 294 299 301 302 297 295 294 291 290 293 295 295 291 290 288 291 296 298 297 295 294 294 294 294 294 292 291 289 288 293 291 287 296 299 300 297 294 302 303 305 309 311 313 315 315 316 318 318 318 320 320 319 320 320 320 320
305 306 307 308 306 307 307 307 307 304 300 299 298 297 302 304 304 303 297 289 287 294 297 299 298 298 296 294 300 298 295 295 297 296 304 300 294 296 294 292 291 293 292 294 294 291 290 295 299 298 297 295 293 293 293 292 290 293 294 292 292 293 294 292 293 298 299 299 306 305 301 299 304 305 307 312 316 316 316 317 317 318 318 319 319 319 320 319
304 306 306 306 307 307 305 307 300 299 301 300 298 302 303 304 303 303 294 289 289 289 299 298 302 300 300 306 303 295 297 298 299 301 302 300 296 294 293 296 294 291 294 295 295 293 294 298 299 296 295 294 293 291 293 292 289 290 295 295 295 296 294 294 297 296 292 290 304 302 289 291 301 305 305 308 310 311 314 313 314 315 316 317 316 316 318 319
305 306 306 306 307 306 306 298 297 300 299 296 299 303 304 304 304 303 293 284 279 287 295 287 301 294 306 298 300 298 297 292 301 302 303 301 302 296 295 293 296 291 294 295 294 294 294 299 297 295 294 293 293 292 293 295 289 288 291 297 297 297 296 296 295 295 288 285 300 304 292 286 299 302 304 306 307 307 309 310 312 313 314 315 315 316 317 317
305 306 306 306 307 306 298 292 300 301 296 297 303 304 304 304 306 301 287 279 275 289 286 295 295 296 303 299 299 298 283 288 301 302 301 304 298 301 292 290 296 298 299 299 292 290 297 296 296 296 294 293 291 290 294 295 290 288 296 298 298 296 296 296 296 294 290 297 302 302 299 292 291 298 305 306 305 305 306 307 309 311 312 313 315 316 316 316
305 304 305 306 306 305 299 300 299 297 298 302 305 304 305 304 306 301 286 273 272 293 287 292 296 303 300 299 299 293 294 298 291 297 302 303 302 296 293 291 293 294 297 296 285 294 296 294 294 293 293 292 290 293 295 296 293 292 297 299 296 297 297 297 295 292 292 292 290 296 301 291 290 298 306 306 302 302 303 305 306 309 311 313 314 314 315 315
305 304 305 306 306 306 304 300 299 296 302 304 304 305 304 305 302 290 280 273 290 289 303 290 305 298 297 298 295 295 295 297 291 297 301 302 302 298 290 292 295 296 298 296 289 293 297 296 296 296 293 290 294 296 297 296 292 296 298 299 299 298 298 296 292 292 291 287 283 292 298 286 287 299 302 304 302 301 303 305 307 309 311 312 313 313 314 314
304 304 304 305 304 302 301 302 298 302 303 303 303 304 307 300 293 281 276 268 294 282 293 294 293 289 294 290 291 294 292 294 297 298 299 296 298 300 298 299 294 296 294 297 296 296 297 301 301 298 294 296 296 296 298 297 297 299 299 296 295 296 293 294 293 291 288 281 285 291 294 290 285 295 300 299 300 303 304 305 307 309 311 312 313 313 313 313
304 304 304 305 299 300 300 295 300 305 304 304 305 303 300 292 283 277 272 280 293 289 294 291 290 295 290 288 286 292 292 293 294 296 293 297 294 296 296 292 296 292 293 293 293 296 297 298 297 298 301 300 298 295 298 298 298 297 294 292 291 289 292 289 288 290 282 279 287 291 292 293 285 292 300 303 306 306 305 304 306 307 309 310 311 312 312 312
304 304 305 303 303 304 296 295 303 305 307 306 303 298 293 278 283 275 276 295 280 286 287 286 292 291 290 291 289 289 288 291 293 293 291 291 290 289 290 285 288 282 285 287 287 294 292 294 297 299 303 299 296 292 294 297 295 296 292 291 285 280 282 280 284 280 279 279 287 291 294 290 292 296 299 304 305 306 307 307 307 308 308 310 310 311 311 311
303 304 305 304 304 300 301 302 305 306 305 304 299 295 284 278 271 279 280 286 283 291 288 293 290 290 290 288 287 289 292 287 292 292 294 293 291 290 293 291 292 288 282 288 287 288 289 295 296 297 298 301 297 289 286 289 291 292 290 286 282 278 278 274 278 279 281 289 292 291 296 293 297 300 304 304 305 307 307 308 309 309 309 309 309 310 310 310
303 304 300 302 302 302 303 305 307 305 304 301 294 288 282 276 275 287 283 285 286 295 294 291 291 291 290 285 287 290 285 290 291 290 293 290 291 287 290 292 293 291 291 289 285 287 280 284 292 295 290 299 296 294 291 290 290 292 295 290 285 284 282 275 278 275 277 280 288 295 288 288 291 293 304 305 307 307 308 309 309 310 310 309 309 309 309 308
303 302 302 301 302 302 302 304 307 305 302 296 289 283 276 276 281 281 283 287 292 295 292 294 290 288 287 288 290 291 290 285 291 290 290 289 287 288 287 289 292 293 292 284 289 287 288 286 294 299 297 298 295 297 298 295 292 293 294 294 287 284 285 279 281 282 284 282 283 289 289 297 296 305 306 306 307 307 308 308 308 307 308 308 307 306 306 307
301 299 301 298 299 301 302 307 303 302 298 291 283 279 277 282 280 288 286 294 294 291 292 294 292 286 285 285 289 289 292 287 289 289 289 290 291 288 292 291 291 293 290 284 289 284 289 286 295 297 298 297 297 298 298 297 283 289 291 286 289 294 292 284 284 289 281 282 283 290 294 297 304 304 305 305 305 305 306 306 306 306 306 305 304 305 305 306
296 299 295 298 298 302 306 305 303 300 296 290 283 278 284 286 290 290 293 291 292 295 292 286 288 286 283 282 285 288 288 290 289 287 283 291 287 292 291 292 295 294 295 293 290 293 284 285 294 294 293 297 299 298 298 299 296 291 287 290 296 296 296 286 279 283 281 277 280 293 289 292 293 287 303 302 302 303 304 304 305 304 304 303 303 304 305 305
296 297 297 297 300 303 306 305 301 298 293 288 281 283 289 285 293 292 294 293 294 295 289 288 289 291 284 284 284 287 289 285 285 287 285 289 284 295 292 291 295 295 296 297 290 291 293 284 290 295 295 297 300 298 296 299 300 292 292 297 289 281 283 289 283 278 277 276 281 289 293 293 293 292 298 299 299 301 302 303 303 302 303 302 303 303 304 305
297 295 289 297 302 304 304 304 299 295 289 282 281 281 287 288 292 292 293 294 295 293 287 291 287 291 291 286 288 290 289 283 287 286 283 287 282 292 292 294 292 296 296 297 293 295 295 283 288 295 295 296 297 295 286 291 297 298 297 294 295 290 287 283 282 284 282 278 283 286 292 285 296 297 299 298 300 301 302 302 302 302 302 302 302 303 303 304
292 289 288 300 302 303 304 302 296 293 287 280 282 283 289 287 290 294 295 295 292 292 290 289 293 289 292 292 291 287 289 288 286 286 287 287 286 294 292 296 293 294 296 297 295 298 288 291 281 289 297 296 288 292 290 289 286 289 289 288 291 292 293 290 291 287 281 278 282 284 284 289 294 302 301 301 302 303 303 302 302 302 302 302 303 303 303 304
297 289 290 302 302 303 302 297 290 286 283 286 288 287 289 288 291 293 294 296 295 298 294 292 292 289 292 291 292 295 288 288 288 284 287 287 287 282 293 295 296 294 296 295 294 296 288 287 283 288 291 289 289 295 295 294 293 290 288 286 287 288 284 283 279 291 288 284 279 282 281 290 297 302 303 303 304 304 304 302 302 302 302 302 302 303 303 303
290 284 289 302 302 302 296 287 287 290 287 285 284 288 287 294 291 292 294 296 296 293 298 295 296 294 293 292 293 293 292 287 288 287 289 286 290 290 293 297 296 297 294 289 291 299 294 292 289 284 287 288 294 296 298 298 296 294 294 289 291 289 287 284 279 282 288 287 292 289 286 288 298 302 303 305 304 303 303 303 301 301 301 301 302 303 303 303
288 285 300 304 304 300 293 286 289 287 286 289 293 292 293 292 291 293 292 295 292 296 294 295 293 293 296 294 294 292 294 289 289 287 290 291 292 293 296 296 297 296 296 291 295 297 311 288 285 289 293 295 297 297 298 298 296 293 293 294 291 288 290 286 284 287 284 286 284 283 283 288 299 303 306 304 303 303 303 302 300 301 301 301 302 302 302 301
289 290 294 302 304 300 290 281 281 283 287 290 290 290 294 292 292 291 291 294 292 293 294 294 294 297 294 296 294 292 295 283 290 290 289 293 291 297 297 297 297 295 294 291 291 299 289 290 288 282 284 286 290 293 292 296 295 291 289 292 293 292 293 293 294 293 285 288 289 286 282 286 297 303 303 303 302 301 301 301 301 300 300 301 301 301 301 301
292 297 295 297 301 298 287 289 287 285 288 289 290 289 291 292 294 295 294 292 295 294 295 292 295 296 295 296 295 295 296 292 289 294 292 293 297 298 298 297 298 294 298 301 306 300 289 290 287 280 278 278 279 280 280 283 288 290 294 293 294 293 292 289 285 286 282 288 292 287 285 292 298 301 300 301 300 299 300 300 301 301 300 300 301 301 302 302
289 282 290 294 296 296 294 295 292 289 288 288 286 289 291 289 293 296 296 294 295 295 294 294 294 297 295 295 293 293 293 297 292 291 291 292 296 297 298 298 298 297 302 311 306 299 292 297 291 286 282 280 282 288 295 292 290 287 290 291 293 294 293 292 288 284 283 284 286 291 291 291 294 297 297 298 298 298 298 299 299 299 300 301 301 302 302 302
294 285 284 282 291 292 290 293 291 291 286 291 283 291 289 290 292 293 298 291 296 296 297 297 295 293 294 293 292 293 295 293 295 294 293 293 300 297 298 298 298 301 308 309 305 296 293 288 292 293 293 293 295 297 296 293 290 290 290 290 292 292 292 291 285 285 291 289 284 292 294 292 293 296 296 297 298 298 298 298 299 299 300 300 301 302 303 302
286 290 294 295 287 283 285 286 292 290 291 291 287 292 289 289 291 287 294 296 296 297 293 295 295 295 295 293 294 288 293 293 294 287 295 296 297 297 294 297 296 305 307 300 302 296 291 283 292 293 295 297 296 297 297 296 292 291 291 291 290 292 292 289 293 296 291 284 285 292 295 293 294 296 297 297 298 298 298 298 299 300 300 301 301 301 301 301
295 293 294 299 288 292 292 294 295 293 292 292 288 291 289 290 289 293 292 293 295 294 297 285 293 295 295 296 295 291 294 287 285 295 295 297 298 293 291 295 297 304 300 297 297 298 291 286 297 296 294 296 296 296 296 296 296 293 292 291 294 295 296 296 296 296 294 292 294 294 295 293 296 296 297 298 300 299 299 300 300 299 299 300 300 300 299 299
292 291 291 296 295 293 294 293 293 292 289 293 285 290 291 291 289 292 295 294 288 293 298 293 294 296 296 296 296 292 295 296 294 288 298 296 294 296 294 294 292 297 297 296 299 296 290 286 297 295 289 292 296 297 298 296 295 293 295 298 298 298 297 297 296 294 295 294 294 294 292 291 296 299 298 299 300 300 299 298 298 299 300 300 299 298 299 299
300 302 299 292 287 290 292 292 291 289 286 289 287 291 292 292 291 294 293 297 294 292 295 293 296 296 298 297 297 295 299 299 300 300 301 299 292 300 293 295 298 293 300 297 297 296 294 288 297 292 284 286 295 296 296 295 293 292 292 293 295 295 293 293 291 295 293 291 293 292 289 288 294 298 298 298 298 298 297 297 298 298 299 299 298 297 298 298
302 307 303 296 287 292 290 292 291 288 282 289 292 292 291 292 294 295 286 295 297 297 297 296 297 296 296 296 296 298 301 301 302 303 303 302 304 303 301 303 300 298 295 296 297 290 293 291 286 285 284 285 292 294 295 294 290 285 287 291 294 295 294 294 295 296 295 295 290 287 289 293 295 297 295 296 297 297 297 297 297 298 299 298 298 297 297 297
Wind_Speed
11 10 10 10 10 10 10 11 11 11 11 11 11 12 13 13 13 13 14 14 14 15 15 16 17 17 17 18 19 19 18 10 13 10 8 16 9 16 21 9 11 12 7 1 3 4 4 4 6 5 5 3 3 5 7 7 5 3 4 3 6 7 9 6 3 3 3 3 0 1 5 3 5 4 1 2 16 17 17 18 16 21 17 18 16 15 15 15
11 11 11 11 10 10 10 10 11 11 12 13 13 13 13 14 13 13 14 14 14 15 16 15 17 17 18 18 19 19 15 11 12 12 18 9 13 13 8 12 12 11 6 1 5 6 6 7 7 7 6 4 4 4 4 2 4 4 2 4 9 5 10 5 6 5 5 3 1 3 1 2 6 6 1 2 14 17 17 15 19 19 17 17 16 15 14 13
11 11 11 11 11 10 10 11 11 11 12 13 13 14 14 14 14 13 13 14 14 14 15 15 16 18 18 17 18 17 13 10 9 13 16 16 26 12 13 12 12 10 7 3 4 8 8 7 9 8 6 6 4 7 7 4 5 5 2 6 10 6 6 10 8 3 6 4 6 7 2 8 4 3 2 4 6 18 17 14 14 17 16 15 14 13 13 11
11 11 11 11 11 10 11 11 11 12 12 13 14 14 14 14 14 14 14 14 14 14 15 16 16 17 17 17 17 13 9 9 6 9 5 15 23 19 15 13 12 10 4 5 5 7 8 9 7 10 6 8 5 9 7 5 6 3 5 7 7 4 7 8 5 3 4 6 4 5 5 3 4 2 4 6 5 10 11 15 19 18 17 16 14 12 11 10
11 11 11 11 11 11 11 11 11 12 13 13 13 14 14 14 14 14 13 14 14 14 15 16 16 17 18 18 18 9 9 4 3 2 2 5 15 22 18 14 12 8 7 1 2 8 10 11 11 7 6 5 8 5 8 7 6 1 9 12 10 7 9 16 8 2 4 2 5 4 6 4 1 0 2 3 8 3 10 13 19 19 16 16 15 11 10 10
11 11 10 11 11 12 12 11 12 12 13 13 13 13 13 13 13 14 14 13 14 14 15 15 17 17 18 19 13 7 2 4 2 1 2 7 10 13 11 8 9 4 3 3 4 3 7 9 9 7 5 5 4 6 4 8 9 7 5 5 7 7 9 11 7 5 5 2 2 3 4 4 3 4 5 12 10 14 19 20 20 18 17 15 13 11 10 9
12 11 10 10 11 11 12 12 12 13 13 13 13 13 13 13 13 13 13 13 14 14 15 15 15 17 17 16 10 6 5 9 8 2 0 10 12 12 8 6 3 1 2 3 6 5 6 9 9 6 4 6 7 8 9 7 6 7 6 5 10 10 11 8 5 6 5 6 5 2 1 5 3 1 6 17 18 20 17 18 19 19 19 16 15 11 12 11
12 12 11 11 11 11 11 12 12 13 13 13 13 13 13 13 13 14 13 14 13 14 14 15 15 16 16 11 7 4 6 7 12 3 6 5 7 10 10 5 5 3 4 10 8 9 8 9 9 5 6 5 3 8 8 9 8 7 7 6 9 7 6 3 2 4 3 3 6 4 1 4 3 1 6 13 20 20 20 20 18 17 15 13 14 13 13 12
12 12 12 11 11 11 11 12 12 13 13 13 13 13 13 13 13 13 14 13 13 14 14 15 15 14 14 7 4 6 9 14 11 4 8 7 8 7 9 6 6 9 8 8 8 9 5 6 9 6 4 6 7 10 8 6 4 7 6 4 4 8 7 6 4 7 3 2 4 2 1 5 7 4 5 16 16 21 22 21 20 17 15 14 14 13 12 12
13 12 12 12 11 11 11 11 12 12 13 14 13 13 12 12 12 13 13 13 13 13 14 14 14 14 11 6 6 5 10 13 12 12 11 10 9 8 8 7 11 7 7 8 7 9 9 6 8 5 8 8 5 9 9 6 4 9 13 10 7 8 7 2 1 3 3 3 3 2 4 5 4 5 3 14 18 20 21 19 16 18 16 13 13 12 11 13
13 13 12 13 11 11 10 11 12 13 12 13 13 12 12 12 12 12 13 13 13 13 13 13 13 12 8 6 4 6 8 6 8 11 15 11 12 9 9 6 11 8 9 7 9 10 10 11 9 5 4 4 4 8 7 3 5 7 3 4 10 10 7 3 3 3 1 1 1 4 5 6 2 4 4 15 15 21 21 18 16 16 16 13 13 13 11 10
15 14 13 12 12 11 11 11 12 13 12 12 13 13 12 12 12 12 12 12 13 13 12 11 12 6 7 8 7 11 6 3 10 9 6 10 11 11 10 8 11 8 10 8 10 9 10 11 11 7 4 4 9 6 10 9 9 8 7 7 3 6 10 4 4 3 4 2 5 6 5 4 6 6 4 9 20 20 19 17 16 15 13 13 12 11 10 10
17 15 14 13 12 12 11 11 12 12 12 12 12 12 12 13 13 13 12 11 10 12 12 11 9 5 7 7 11 20 22 14 16 17 17 8 6 9 9 10 12 11 11 9 8 9 10 11 11 10 11 5 2 5 1 3 3 5 4 5 4 4 5 4 2 4 6 4 8 6 5 4 5 8 2 4 15 21 18 16 16 14 12 11 11 11 10 9
15 15 14 14 13 12 12 11 12 11 11 12 12 12 12 12 13 13 13 13 12 11 12 12 6 6 5 7 9 12 14 9 13 16 14 13 5 8 10 8 10 11 10 11 10 6 11 10 11 11 7 8 7 2 10 3 3 5 5 3 3 0 2 4 4 7 6 5 10 5 3 5 7 5 3 12 24 21 17 15 15 14 13 12 11 11 10 8
15 15 14 13 14 13 12 11 12 11 11 12 13 12 13 14 14 14 14 13 13 12 13 9 3 4 3 8 11 21 29 16 11 15 16 12 9 6 8 7 4 3 4 7 6 8 7 10 10 9 7 7 8 10 5 4 3 4 3 4 1 3 3 5 8 7 9 3 9 7 3 6 10 5 5 14 18 20 16 14 14 13 13 12 12 12 11 10
16 14 15 13 14 14 13 12 12 11 12 12 13 13 14 15 15 15 15 13 14 14 8 7 6 6 5 10 7 9 6 4 9 16 12 10 11 7 4 7 6 5 6 5 5 5 7 6 9 6 6 6 8 3 2 5 5 2 6 2 3 6 7 4 9 8 12 4 7 6 4 5 5 4 7 13 21 18 16 14 14 15 14 12 12 11 10 11
16 14 15 15 14 14 13 13 11 11 11 11 13 15 15 16 16 15 15 15 9 6 5 4 2 7 2 5 7 10 11 8 8 7 9 10 10 7 8 4 8 9 8 8 7 7 6 7 4 6 6 5 3 2 3 7 4 4 4 4 3 7 6 6 6 10 11 6 5 8 4 2 5 10 7 19 22 19 15 15 15 13 11 11 10 9 9 9
16 14 14 16 14 14 13 12 11 10 11 11 10 13 14 16 17 12 9 7 5 6 6 8 6 4 11 12 7 10 11 11 9 8 9 8 10 9 8 6 4 8 8 8 9 9 6 6 5 5 5 7 2 4 7 7 6 5 4 5 6 5 8 8 8 9 10 11 6 8 4 4 6 6 8 19 19 20 17 16 16 14 11 10 10 10 9 8
16 16 14 11 9 12 14 12 12 11 9 9 13 17 20 19 10 6 7 3 2 1 1 5 7 6 1 5 20 7 7 12 8 11 11 10 8 8 7 7 5 7 6 7 4 9 4 4 4 5 9 7 9 7 7 7 8 10 8 10 7 7 7 7 10 14 14 11 9 8 7 3 4 6 9 10 10 18 15 14 13 14 13 12 10 8 8 8
17 15 14 13 11 11 14 12 10 10 8 6 6 7 4 1 2 2 5 7 9 9 6 5 12 11 19 16 5 10 12 9 10 13 12 13 9 10 11 8 7 7 7 8 6 13 4 8 10 13 7 7 8 10 8 11 13 11 9 9 11 10 10 8 10 13 13 9 8 9 6 5 15 16 14 19 16 14 14 14 13 13 12 11 10 10 10 10
16 15 15 14 13 12 12 12 9 7 6 4 6 6 5 6 5 2 5 10 15 15 15 12 14 19 16 13 12 9 4 10 12 11 15 12 12 10 10 9 8 8 8 8 7 6 7 9 9 5 6 6 9 10 10 13 13 14 6 6 10 12 11 12 11 17 14 7 6 8 8 13 13 15 14 17 16 12 14 14 14 13 12 11 12 12 13 10
13 14 14 13 14 12 12 12 10 8 6 4 6 8 8 11 11 6 5 6 11 17 17 17 14 15 17 17 17 11 12 10 13 12 13 14 13 13 9 11 10 9 7 9 7 8 9 11 6 4 7 7 8 11 13 14 12 11 8 7 6 9 11 11 10 17 13 7 9 8 14 11 16 15 14 17 15 12 12 13 11 13 12 10 11 12 11 11
13 13 14 16 17 13 12 11 9 7 3 5 9 12 12 11 12 10 8 11 12 9 16 16 15 16 20 15 13 10 13 13 11 16 13 13 12 14 10 12 10 8 11 12 10 9 9 8 9 9 7 10 12 10 13 14 10 8 7 4 8 9 6 5 14 20 15 7 9 14 14 9 12 15 14 12 13 12 14 15 13 10 11 12 11 10 10 10
13 12 13 13 10 12 9 9 5 4 7 11 12 16 12 9 11 12 9 7 8 10 10 14 16 15 19 13 6 9 13 10 13 17 13 15 12 13 8 14 10 10 13 15 12 9 9 4 8 11 13 13 13 11 11 11 9 8 9 7 8 11 9 3 12 14 16 4 18 18 10 5 4 11 12 11 10 13 11 13 13 12 11 11 11 11 10 10
14 11 10 12 13 11 12 2 0 7 8 10 15 16 13 14 13 13 8 6 6 10 10 14 9 11 17 8 12 11 9 12 9 9 11 17 13 13 10 9 7 12 11 14 13 10 10 10 12 12 13 14 13 12 12 10 9 6 8 11 13 14 11 4 11 13 6 5 10 18 6 2 1 7 11 9 9 11 8 12 12 11 11 11 12 11 11 11
14 11 10 12 11 10 7 2 7 9 9 12 11 11 10 13 13 11 6 2 8 5 9 10 9 13 9 10 8 12 14 11 6 4 8 11 9 11 6 8 7 11 13 14 12 5 6 11 15 16 14 13 14 12 10 9 7 6 8 9 14 16 11 5 7 9 9 8 9 10 13 1 1 5 8 9 11 12 8 9 10 9 9 10 10 8 9 10
12 10 10 13 11 10 3 5 6 7 8 10 9 11 11 9 10 7 3 3 4 9 13 9 12 1 9 8 12 8 6 8 5 8 7 12 11 9 9 6 9 5 9 5 5 9 9 12 15 16 14 14 12 12 10 10 6 7 5 9 12 10 9 7 4 10 6 6 13 12 9 9 3 5 7 10 12 10 9 8 7 9 10 10 9 8 9 10
9 7 12 13 10 11 5 4 8 6 8 9 12 12 15 11 1 5 1 2 4 8 8 10 8 6 8 11 13 11 5 10 8 13 12 12 10 12 10 10 10 11 10 9 12 5 11 10 13 16 14 11 12 10 8 9 9 4 6 11 6 6 9 7 7 9 7 11 10 8 12 7 5 6 10 13 13 8 9 7 7 8 9 9 10 10 10 10
7 7 9 7 7 13 8 4 6 9 8 11 12 14 3 10 5 4 3 3 3 3 6 11 5 7 5 12 13 11 13 5 10 7 9 12 17 4 11 10 7 12 10 13 6 6 9 12 10 13 13 12 8 9 12 10 9 6 7 9 5 6 6 5 4 2 4 6 7 10 11 5 2 8 9 6 9 10 10 10 9 9 10 10 10 11 11 9
3 4 6 6 6 6 4 5 8 8 11 12 12 11 6 5 6 1 2 4 3 2 7 6 10 10 9 15 12 13 14 7 6 7 9 11 18 11 4 7 7 10 11 9 11 8 8 13 9 10 12 9 8 8 13 12 7 5 11 11 6 9 2 1 2 0 3 6 9 11 12 8 3 8 12 14 12 16 13 9 8 9 11 10 9 11 9 9
1 4 6 9 4 4 5 5 8 6 10 9 11 10 2 3 2 4 5 5 4 6 6 7 9 10 12 17 12 13 12 9 9 8 8 12 14 13 4 8 9 4 7 7 10 14 11 13 12 5 10 9 10 9 11 11 7 8 8 7 3 8 1 1 1 3 2 5 6 7 7 7 6 5 7 2 10 13 15 16 15 14 12 9 8 9 10 10
5 7 9 6 6 6 5 4 3 6 6 9 9 2 3 4 2 6 4 4 2 4 9 9 10 10 12 13 9 13 12 11 9 10 9 12 10 12 12 7 8 6 9 10 9 10 11 11 10 8 5 13 10 7 10 13 7 9 7 4 8 2 2 4 1 2 2 7 3 4 4 5 7 3 3 8 16 13 11 14 16 16 12 10 10 11 10 9
4 5 7 7 8 5 7 7 5 3 6 9 6 4 1 3 7 8 8 7 4 8 3 8 11 12 12 14 12 14 13 11 11 8 10 11 8 12 10 9 5 6 4 7 4 8 6 5 14 12 8 9 11 10 6 11 9 9 10 5 5 3 5 4 2 2 0 1 8 6 9 5 0 3 5 13 11 15 13 12 13 14 12 11 10 10 10 9
5 6 4 5 7 8 7 4 3 7 7 6 4 2 2 5 5 4 8 5 8 14 1 8 12 10 13 11 10 12 12 12 9 7 13 9 10 9 11 15 13 11 4 8 7 9 6 9 13 15 6 10 10 12 7 5 5 8 6 6 6 3 3 5 3 4 5 5 4 6 4 3 5 1 5 11 13 14 13 14 12 12 11 11 10 11 11 10
7 5 5 6 7 7 8 2 3 7 4 5 3 2 6 7 3 1 3 5 4 10 7 6 11 10 11 11 9 13 9 6 13 8 13 10 11 8 12 12 15 8 6 6 7 2 12 5 3 15 3 9 7 6 5 9 4 4 4 2 4 8 5 3 4 3 0 1 2 8 2 3 5 4 9 9 11 13 14 15 14 13 11 11 10 9 8 8
6 4 4 5 6 5 4 5 6 8 7 3 2 6 7 4 2 7 2 9 7 8 15 14 5 10 7 8 9 12 13 4 11 7 9 10 10 9 11 7 10 13 6 6 4 4 5 7 4 13 5 13 13 5 5 4 6 5 4 8 9 4 3 1 0 3 5 3 3 2 6 6 4 6 9 11 12 14 15 15 14 13 12 10 9 8 8 7
4 3 3 5 8 6 4 2 5 7 3 3 4 5 5 6 7 8 5 9 10 10 9 5 3 8 6 7 6 12 11 11 7 6 6 11 7 11 12 12 11 12 14 5 5 4 6 3 5 11 8 2 7 3 4 4 2 4 9 8 0 4 4 5 4 1 3 3 1 2 8 8 7 4 7 11 13 13 14 14 14 12 12 10 8 8 7 7
4 5 8 9 7 5 7 6 8 5 1 1 5 6 3 8 6 10 11 11 5 6 5 1 4 9 7 6 8 10 12 11 6 8 4 13 3 13 12 11 15 13 14 13 2 7 3 5 4 14 10 7 5 3 8 11 11 6 10 6 6 5 9 1 3 1 4 3 3 2 8 6 6 5 9 14 14 14 14 14 14 13 11 11 10 10 8 7
3 4 5 7 8 5 8 9 8 1 2 2 2 5 5 8 9 11 12 11 8 7 3 0 2 6 3 10 6 10 13 11 7 7 5 8 5 12 14 9 12 19 14 12 9 3 4 2 2 6 10 7 6 7 10 11 11 8 3 9 8 2 3 5 4 3 8 2 5 4 7 3 4 8 11 11 10 13 14 13 13 12 12 10 9 8 7 6
3 3 4 2 6 7 8 8 3 2 1 2 2 6 6 10 11 13 9 7 6 3 2 4 5 5 6 6 4 5 12 15 8 4 5 7 7 11 15 12 7 16 19 14 6 5 2 3 0 5 12 10 8 8 11 8 6 7 4 3 7 3 4 5 2 6 5 4 7 6 3 3 1 1 14 14 14 14 14 13 12 11 12 11 10 8 6 5
3 2 4 1 6 7 7 3 0 4 3 3 7 9 9 8 9 11 14 12 6 3 4 5 3 1 4 8 5 9 6 12 11 5 5 9 11 4 11 13 10 13 18 14 10 4 2 4 7 3 12 10 5 8 8 7 6 4 4 6 6 7 4 10 4 1 3 4 4 6 3 1 0 3 1 12 12 12 12 14 12 13 12 10 9 7 5 5
1 2 1 5 10 10 7 5 3 3 3 6 5 6 7 8 9 10 9 9 8 7 7 4 6 6 5 4 5 6 6 7 10 7 4 6 12 5 8 15 14 10 12 8 7 4 4 3 3 3 5 8 4 11 12 9 7 7 8 6 7 5 6 3 4 3 2 2 9 5 8 1 2 2 4 6 11 12 12 13 13 13 12 10 8 7 6 4
2 3 4 7 3 11 6 1 3 4 5 6 9 13 13 13 11 7 8 8 9 9 6 6 6 7 3 4 6 8 4 3 9 9 5 12 8 11 8 17 14 13 11 5 9 5 7 2 5 3 0 3 6 5 15 11 7 8 6 7 5 6 7 6 3 4 5 4 6 2 3 1 3 4 2 12 14 13 11 13 14 11 10 10 8 7 6 4
2 2 3 7 6 7 4 2 2 5 6 10 12 13 11 10 11 7 6 11 6 3 2 1 6 3 4 4 3 3 5 3 5 10 5 8 6 14 10 17 15 10 11 5 8 4 5 1 7 5 2 4 7 3 5 9 7 4 2 4 5 3 8 6 2 1 1 2 11 8 6 3 3 1 12 14 15 15 14 12 14 13 9 8 7 6 5 4
2 1 3 3 4 4 5 3 3 3 6 8 9 11 10 9 3 2 5 12 11 9 2 3 5 3 3 4 6 6 4 6 2 8 5 7 3 16 12 17 17 7 11 8 9 6 3 3 5 3 6 9 10 11 9 9 10 2 2 3 6 7 7 5 7 4 4 0 12 7 3 2 3 8 13 14 15 14 13 13 10 10 10 9 7 6 5 3
1 1 1 2 2 2 5 7 5 5 6 6 6 8 8 9 7 5 8 11 15 12 4 3 5 1 3 7 4 4 7 7 4 4 6 3 2 7 6 13 17 8 14 11 12 6 2 3 4 3 5 4 3 1 2 4 4 9 7 7 4 10 6 6 5 5 8 2 5 4 17 13 11 12 13 13 14 15 13 13 13 11 10 8 7 6 5 6
3 0 2 1 2 5 6 5 6 6 4 3 2 3 5 10 10 7 9 4 4 2 3 3 4 3 3 5 3 4 3 7 6 5 13 6 1 1 5 7 13 16 17 9 15 5 2 2 4 4 1 1 1 2 3 7 8 8 5 5 5 5 7 4 6 4 7 10 1 1 20 22 14 14 14 15 13 13 12 12 12 11 11 9 9 7 8 8
1 2 2 2 2 2 5 5 7 6 6 7 4 2 5 8 5 2 7 4 8 3 2 2 3 1 4 4 4 3 5 5 4 4 11 2 1 4 4 4 6 10 12 6 6 4 6 3 3 5 2 3 4 4 3 5 5 10 9 5 6 5 5 7 3 7 11 7 8 14 16 20 16 16 15 15 14 13 13 13 11 12 12 11 10 10 10 9
2 2 4 2 2 3 2 4 5 5 5 6 2 2 5 8 7 2 4 4 4 3 4 2 4 4 5 7 3 2 3 3 5 3 4 8 4 2 0 2 6 9 11 6 2 1 5 2 1 4 3 2 3 4 9 7 11 2 11 9 2 4 6 8 6 3 7 4 15 21 13 13 13 14 14 13 12 13 12 11 10 10 11 12 12 11 10 9
2 3 3 4 3 0 3 3 2 3 3 6 2 5 6 5 6 5 5 4 2 3 2 4 6 2 6 10 11 5 4 2 2 1 4 6 9 4 3 1 1 1 4 8 2 1 6 2 1 2 3 2 5 6 8 10 9 13 15 15 12 15 12 12 14 18 24 18 15 16 16 12 5 11 12 11 11 12 13 13 12 11 11 12 12 11 10 11
2 1 2 4 4 2 2 2 2 2 3 3 4 3 5 4 4 8 8 8 5 3 3 4 5 7 7 9 8 9 8 3 3 2 5 2 1 3 4 3 7 3 1 3 4 4 7 1 2 4 3 1 3 7 4 10 16 16 14 13 11 8 11 3 7 0 12 14 17 15 11 8 9 12 12 12 13 14 15 14 12 10 10 12 11 11 10 10
3 2 1 1 2 4 4 2 2 2 2 2 3 5 3 7 8 7 4 4 5 7 6 6 3 2 4 4 1 3 10 4 4 4 1 3 4 9 4 4 3 3 1 2 2 5 3 5 3 3 6 1 6 3 0 0 4 7 8 8 5 6 11 11 13 10 13 25 18 14 11 10 14 13 15 12 13 13 13 12 12 10 12 12 11 11 10 10
Wind_Direction
322 321 321 322 323 322 323 325 325 322 321 321 322 324 323 317 314 317 317 316 318 318 317 319 323 321 322 325 328 328 328 320 310 302 270 241 227 228 253 219 180 184 163 188 261 267 197 202 214 236 247 240 236 245 256 268 246 205 213 207 259 236 255 257 260 280 286 93 223 229 186 120 142 169 198 81 89 93 87 84 78 74 77 96 105 109 112 115
313 318 317 318 319 320 319 321 323 322 321 321 321 322 323 321 315 312 315 315 316 317 318 318 321 324 322 328 328 327 328 303 290 279 248 242 243 229 194 172 164 164 147 190 243 222 220 193 212 207 223 238 219 244 208 243 236 200 208 176 235 225 249 275 273 283 50 326 5 56 20 215 187 144 199 103 110 101 88 92 93 87 89 94 96 106 110 111
310 312 314 312 315 316 316 318 320 321 323 322 320 321 320 318 317 312 312 312 314 316 317 321 322 322 324 325 326 329 322 305 282 253 259 221 236 215 174 170 165 159 167 188 223 245 227 206 195 202 212 240 219 238 210 231 213 222 187 218 240 238 269 262 292 303 54 12 17 341 315 38 114 94 125 195 135 114 120 116 102 111 114 109 113 110 113 114
304 305 309 309 308 311 312 314 318 319 321 321 321 320 319 316 315 315 312 311 311 312 316 318 319 321 321 327 327 325 313 279 271 242 215 202 205 195 186 171 167 171 170 221 260 275 288 290 230 196 209 217 241 234 226 210 210 179 209 234 241 231 254 288 273 76 3 22 10 357 359 29 19 77 164 170 130 127 133 138 133 129 126 121 118 121 121 119
296 301 300 304 305 305 309 313 313 317 320 323 321 322 320 317 314 315 316 315 311 314 318 319 323 321 322 325 323 324 300 358 275 22 298 263 200 182 183 173 169 172 177 220 278 265 269 271 281 215 215 225 233 239 234 219 210 213 212 233 256 293 301 287 283 212 123 321 20 3 8 314 128 15 6 124 89 133 132 118 116 120 123 121 121 124 119 116
290 291 293 296 303 302 305 308 312 314 317 319 320 319 318 317 314 315 314 311 314 315 318 319 321 323 323 326 312 292 307 152 359 64 69 83 140 157 156 160 172 173 169 216 229 278 282 276 252 238 203 231 237 230 229 227 176 236 266 256 242 235 249 267 314 38 37 29 338 31 299 318 70 351 62 80 96 107 125 123 118 117 119 120 123 122 117 114
280 285 287 289 288 298 300 303 308 313 314 316 317 315 316 314 312 310 311 314 314 315 315 319 321 322 329 324 289 241 238 282 324 188 203 125 131 137 138 134 132 161 199 217 228 235 250 254 255 231 230 220 243 258 261 227 190 201 244 237 243 234 237 260 69 1 37 24 311 320 321 338 358 261 71 95 107 108 105 106 110 112 116 125 126 123 115 108
273 271 279 283 286 290 295 300 306 310 311 314 313 314 313 312 310 309 311 312 313 315 317 318 321 325 334 335 335 206 211 255 238 161 179 145 136 140 135 135 150 152 185 211 208 219 240 258 242 231 249 205 206 238 257 256 213 218 237 259 276 285 255 246 109 66 38 292 276 357 31 271 272 169 86 108 112 113 110 108 106 112 111 113 111 109 104 97
272 273 274 277 281 284 292 296 301 305 309 312 310 309 310 311 309 309 308 307 309 312 316 317 320 324 327 299 281 320 248 229 252 169 167 160 146 138 146 148 174 169 199 211 221 232 216 248 250 221 216 231 253 254 250 252 251 208 244 240 254 261 266 215 149 149 165 276 245 282 295 301 273 16 110 129 123 120 120 118 119 111 104 103 101 103 102 100
267 267 270 273 275 283 286 292 296 302 308 307 305 307 308 307 306 307 306 306 306 309 314 317 319 329 320 301 278 255 259 224 238 195 189 167 152 156 186 164 164 184 188 211 221 230 229 235 243 229 258 275 257 248 263 246 241 186 214 224 239 261 277 11 306 128 107 253 150 217 186 257 273 161 117 145 133 123 118 116 115 114 109 104 100 98 100 104
269 267 263 265 272 275 279 285 294 297 303 304 305 308 305 304 303 303 306 305 304 307 311 312 322 332 318 311 283 236 263 235 185 165 191 186 156 170 195 194 172 178 196 211 221 222 237 252 258 268 258 242 290 275 268 244 297 280 229 229 240 259 272 243 242 127 91 310 227 211 252 241 219 190 155 143 143 127 119 115 112 111 110 107 102 99 100 98
274 265 262 259 263 269 278 286 290 296 302 305 305 304 304 300 299 299 300 300 299 303 306 317 325 307 287 274 236 232 247 33 21 335 283 204 174 185 193 202 174 187 186 206 219 229 235 246 255 258 234 142 253 308 290 279 269 279 282 274 259 235 254 199 227 168 150 230 224 214 270 285 161 219 181 160 138 123 111 112 110 108 108 108 105 99 98 104
282 268 262 258 258 264 270 281 287 295 300 301 304 304 301 298 292 289 285 287 294 304 310 310 312 300 303 288 243 249 272 306 319 315 312 270 203 194 196 197 185 190 189 208 217 223 235 240 254 263 256 252 222 200 192 318 300 306 260 197 244 274 241 225 229 176 153 210 213 149 227 283 222 219 198 198 109 110 112 113 115 113 113 107 100 99 98 94
284 282 272 271 259 259 263 273 284 295 301 301 302 299 295 289 286 283 284 285 293 297 299 302 306 305 292 259 281 269 281 308 311 305 282 303 263 212 216 216 204 198 190 200 223 221 224 236 248 255 266 250 249 302 288 276 296 260 277 170 187 71 272 214 220 160 194 173 211 140 182 260 230 220 161 126 121 115 117 118 117 116 111 107 103 104 100 95
263 265 266 262 266 259 260 266 278 289 297 299 297 296 291 287 283 281 283 286 286 293 300 308 267 272 237 267 254 256 260 268 264 255 273 288 288 287 219 194 241 249 214 210 214 227 232 235 233 243 251 255 274 280 300 302 238 231 265 263 187 174 269 234 199 159 202 191 194 160 213 238 212 171 187 115 113 112 112 119 116 109 108 110 109 106 104 103
267 273 264 256 260 258 257 264 273 284 291 297 295 293 289 285 283 281 279 277 285 289 285 272 246 224 306 293 251 303 267 173 246 246 255 247 263 258 271 187 197 216 238 258 251 251 241 234 226 224 252 259 253 250 320 303 288 222 179 212 217 164 239 273 197 174 204 197 175 170 193 238 281 160 163 119 121 119 121 121 115 110 109 111 109 112 117 104
266 258 270 261 256 261 256 261 267 275 287 290 293 286 286 280 274 271 273 276 272 257 244 254 245 181 213 238 309 285 265 245 222 234 220 238 250 249 257 245 188 202 206 229 225 239 247 241 204 229 232 222 189 157 239 264 280 279 184 215 204 184 207 246 198 179 204 209 179 200 201 267 198 168 139 119 126 122 124 122 117 113 113 114 117 105 90 87
273 260 250 264 256 255 255 259 269 278 282 288 291 289 285 281 276 287 284 259 248 249 250 236 270 290 253 243 267 224 216 238 210 214 211 213 233 241 243 241 196 200 188 219 221 219 211 232 175 206 192 216 177 179 182 216 204 217 194 198 255 250 209 196 166 188 192 203 206 187 180 311 115 139 128 125 130 130 129 127 126 121 112 97 79 85 87 83
274 263 260 251 265 269 259 255 262 277 289 300 296 282 269 265 270 254 267 225 175 97 355 205 172 172 241 196 222 255 226 219 213 191 205 201 218 243 245 255 247 187 201 201 185 210 194 243 199 197 209 179 207 206 196 216 216 227 175 185 214 232 244 222 185 173 185 184 215 170 175 213 99 49 26 55 107 118 120 106 100 98 93 87 85 77 72 67
281 271 259 248 242 248 259 255 261 266 282 297 295 298 300 173 179 226 203 224 236 223 241 175 206 278 318 291 152 220 237 260 217 190 197 190 198 212 239 229 232 211 200 195 176 207 169 210 202 207 180 184 202 223 227 230 239 233 198 185 209 221 249 242 166 173 182 173 198 166 147 102 59 64 55 82 95 85 90 96 96 95 97 94 87 82 82 79
285 271 257 252 239 232 241 250 252 260 273 285 283 286 257 209 196 118 169 215 219 231 252 262 193 217 237 284 308 335 296 252 247 181 202 174 199 184 211 211 214 202 209 189 200 194 201 212 219 187 181 189 204 219 236 249 242 250 265 211 207 207 235 232 174 171 187 154 191 158 132 93 83 66 70 68 64 67 90 93 92 92 89 93 95 95 88 88
282 271 266 261 245 227 235 239 243 252 248 256 266 255 259 263 280 316 312 275 222 224 236 249 261 257 257 258 267 286 280 264 250 195 192 180 188 189 186 208 198 201 190 203 199 182 210 215 196 190 184 219 222 211 228 240 245 251 248 268 286 234 228 242 161 172 185 133 166 132 96 85 88 88 64 74 76 68 69 79 86 97 94 96 96 95 92 83
277 265 254 243 237 227 228 234 241 246 251 233 236 243 251 257 283 300 285 279 276 230 222 231 245 254 266 265 272 285 284 274 245 188 183 192 172 200 168 199 197 188 190 209 199 180 205 222 188 194 198 212 231 221 217 241 245 239 250 243 239 251 218 252 159 174 176 172 163 109 101 89 90 91 87 64 80 84 74 76 76 73 92 97 96 94 89 83
269 258 254 254 256 242 233 229 241 248 232 238 248 243 252 269 268 280 288 272 291 264 233 214 222 236 248 241 248 230 244 255 246 173 174 188 183 185 201 195 190 196 196 207 211 190 202 140 186 193 209 209 222 224 213 222 238 238 234 232 250 254 241 169 168 160 170 93 110 101 79 64 56 98 100 103 95 88 86 88 83 80 73 76 78 77 79 81
260 249 245 247 224 226 228 92 259 231 233 240 246 248 249 256 262 263 272 284 252 249 232 261 216 223 239 234 255 272 245 248 250 168 173 184 168 174 214 179 202 202 200 199 215 214 196 196 183 213 208 211 220 226 220 202 231 246 237 229 239 254 263 157 161 148 167 106 140 119 62 48 94 98 105 115 108 94 91 88 90 94 89 82 80 83 80 73
262 245 235 235 218 217 168 169 238 229 218 236 244 254 236 238 246 249 262 271 275 262 174 218 138 239 188 229 199 230 265 265 234 223 174 186 172 185 178 203 200 188 205 189 209 221 198 187 188 199 208 212 216 225 223 206 208 214 243 227 242 250 275 316 159 151 171 150 186 138 137 175 168 130 131 123 107 103 95 96 92 88 91 93 92 87 85 84
261 244 230 221 203 200 177 234 242 197 230 255 243 245 250 243 237 222 80 237 286 197 195 166 156 259 168 174 189 198 217 222 217 253 224 173 198 178 205 205 173 228 193 191 181 213 211 203 190 192 205 209 209 218 221 210 189 234 238 235 235 248 266 273 248 177 186 137 163 130 122 133 188 211 141 126 115 117 102 96 103 97 95 98 103 96 90 90
252 251 241 210 195 200 244 336 345 294 261 295 309 309 279 225 198 58 76 255 274 129 174 167 204 144 188 159 194 201 258 124 186 219 234 165 208 170 222 201 186 202 186 200 207 147 198 216 195 187 199 209 213 208 216 212 207 217 241 245 235 233 250 266 256 165 171 132 173 163 124 90 190 170 141 134 121 128 127 125 118 113 109 105 102 95 87 84
235 202 221 209 204 229 255 293 306 284 293 302 304 304 318 75 73 120 222 258 160 148 109 138 172 150 196 158 195 214 239 191 196 168 205 175 200 181 204 225 201 198 221 204 207 175 196 227 199 193 188 211 209 193 217 210 219 216 254 263 256 244 231 244 290 107 123 137 188 178 153 126 104 156 146 151 129 147 146 137 130 130 125 115 107 101 94 83
179 186 190 198 228 241 250 250 250 267 289 287 292 307 358 58 62 40 209 259 222 136 184 116 178 180 183 165 190 210 227 225 227 160 193 179 187 214 227 221 231 195 220 216 224 218 192 210 216 201 194 196 199 207 207 218 219 143 230 253 267 252 232 159 164 53 56 171 215 185 176 139 160 202 171 167 195 164 144 136 131 134 126 121 115 107 104 95
184 209 208 208 223 219 217 238 242 218 255 273 291 303 22 40 157 200 227 235 309 94 97 149 175 157 180 176 179 202 222 227 224 180 180 163 183 201 196 208 239 239 208 222 216 225 222 183 217 204 188 185 192 205 205 218 197 171 220 216 291 296 343 56 344 64 150 264 252 195 187 127 125 214 198 213 95 133 140 140 143 140 129 122 113 109 106 101
262 247 235 214 246 288 272 255 18 7 5 312 315 322 70 140 278 220 224 334 245 157 153 170 181 175 179 179 186 185 199 219 233 193 182 168 175 191 203 207 182 179 211 197 209 219 231 194 198 219 207 183 184 205 189 212 211 195 213 150 177 269 141 237 125 199 190 208 233 176 153 57 28 291 160 114 127 133 135 139 142 138 131 121 115 106 104 103
295 271 261 251 255 257 264 274 314 339 352 297 288 86 146 193 196 247 266 303 112 171 163 181 168 175 176 173 198 187 204 210 217 202 179 166 177 199 216 229 195 180 172 190 165 198 246 247 195 211 220 210 180 193 174 202 211 194 207 154 150 168 189 213 229 150 337 261 163 177 98 82 219 34 16 120 121 126 127 124 131 133 126 120 113 110 106 102
311 289 268 246 247 253 267 287 7 340 332 280 209 118 315 215 230 197 254 276 291 316 190 185 161 181 177 183 192 176 192 227 216 191 181 164 187 179 213 226 228 204 228 162 209 188 178 225 210 191 224 181 188 185 171 178 171 196 205 157 159 159 163 200 150 170 187 222 176 159 101 217 135 222 53 99 116 117 118 123 123 118 113 106 103 99 98 97
321 293 266 274 265 249 252 288 19 287 280 279 111 205 196 208 320 261 218 308 318 314 253 179 173 182 174 194 187 183 200 197 231 192 182 168 189 185 198 212 226 219 195 136 215 192 210 240 183 185 185 170 191 164 168 164 171 201 176 136 215 227 134 142 194 130 210 128 124 15 91 10 74 102 93 94 105 109 116 117 120 114 112 107 100 94 89 89
311 252 225 244 248 244 224 102 266 261 241 220 159 210 220 203 147 0 350 305 329 337 323 322 254 179 170 198 177 182 195 224 216 224 181 186 185 196 191 216 218 220 193 192 171 202 205 210 204 168 217 179 200 166 215 130 177 217 168 209 211 182 113 116 17 118 94 72 41 221 82 96 89 62 108 114 114 121 124 125 123 117 108 102 100 100 101 97
265 285 254 239 245 251 135 133 225 238 243 226 233 233 247 287 301 313 318 324 321 330 346 25 243 175 166 194 168 188 176 216 228 204 172 178 198 201 186 213 222 218 234 165 162 207 143 235 211 179 157 177 161 182 263 248 187 149 200 221 181 227 158 121 177 188 127 155 160 194 144 143 156 166 160 135 130 138 132 133 124 114 113 108 108 110 112 109
321 312 290 271 250 206 131 190 242 239 313 234 229 270 301 283 301 302 288 295 308 5 331 331 287 211 155 173 184 188 165 197 208 205 178 172 261 182 198 202 210 232 225 225 157 209 164 171 237 174 158 141 131 181 266 266 249 184 202 133 191 180 226 263 103 172 166 171 119 104 153 167 179 146 158 159 152 152 145 136 130 130 125 121 116 110 102 95
328 321 290 246 201 189 140 213 227 233 190 209 247 247 252 258 265 270 280 273 314 350 322 338 338 324 354 184 179 194 166 202 189 222 149 176 218 180 205 183 201 221 234 226 225 215 159 127 184 151 164 151 156 166 221 229 259 246 171 186 182 134 176 165 180 171 127 182 102 143 172 210 212 157 169 162 159 152 143 142 138 130 125 122 115 110 105 103
22 302 258 260 159 142 182 207 141 199 246 236 206 238 284 293 288 290 298 300 324 30 231 268 317 302 325 339 324 206 171 194 207 221 202 159 223 178 197 184 201 206 229 235 233 146 167 123 298 197 174 152 209 183 210 200 204 242 224 219 185 195 201 125 210 181 153 158 149 139 187 230 287 203 168 161 161 155 149 139 129 128 123 119 114 112 113 106
186 246 291 149 134 160 182 119 238 184 211 262 252 268 267 274 306 308 299 314 320 229 240 270 292 289 333 339 322 332 182 189 200 227 196 163 189 159 209 183 198 194 218 231 240 171 113 117 176 245 175 188 204 166 203 202 194 214 191 200 183 154 137 185 272 196 150 130 157 129 201 131 15 22 336 157 156 139 132 122 122 122 117 113 111 114 115 119
238 289 191 157 167 178 159 147 237 216 254 238 238 242 263 266 258 275 313 319 298 285 213 267 256 253 283 265 293 311 324 200 198 217 187 168 200 203 191 202 186 197 201 206 218 193 146 166 129 241 206 174 185 169 196 211 221 222 213 231 179 161 129 118 171 257 144 163 110 139 123 162 249 285 298 160 127 122 120 118 113 113 112 113 118 125 120 130
159 218 340 326 178 168 161 245 212 216 232 251 262 264 267 267 262 276 305 307 304 262 212 193 297 313 274 348 333 333 314 290 209 212 186 172 212 213 185 202 181 202 197 207 222 240 103 99 143 235 246 169 192 180 183 205 229 261 251 215 160 183 177 156 148 187 152 178 90 28 70 197 313 303 134 115 112 113 111 114 115 113 116 121 132 128 120 128
258 269 105 264 289 202 213 190 215 225 238 249 247 261 264 276 279 293 290 289 292 265 137 85 291 301 318 353 323 284 355 17 272 224 205 173 194 211 193 200 183 206 190 175 203 213 186 232 120 156 184 160 190 198 193 195 214 219 199 242 198 134 184 169 162 298 302 234 143 132 164 198 264 109 117 119 117 118 118 118 120 122 126 129 126 126 139 157
249 332 41 312 302 239 232 253 324 324 303 306 310 303 305 290 312 352 296 279 279 284 294 201 186 214 271 312 295 277 264 192 286 283 265 176 220 190 192 193 192 214 194 171 184 181 141 179 104 139 170 169 181 189 200 194 207 258 317 280 223 188 157 135 194 198 222 124 112 103 90 125 163 116 118 122 120 116 120 122 120 122 128 127 131 140 146 125
357 79 128 179 234 233 266 285 298 276 289 295 303 286 274 270 270 303 288 281 265 267 289 356 302 75 335 336 329 335 330 320 258 315 309 199 198 191 184 188 188 206 186 188 158 137 116 155 120 140 149 183 210 222 129 129 146 215 227 238 251 212 185 133 123 128 196 156 93 170 143 145 147 138 128 127 125 127 129 131 128 125 124 127 133 131 123 109
313 341 134 174 162 229 252 223 234 230 244 244 263 296 330 328 317 308 277 258 205 18 332 319 318 357 305 353 323 313 310 308 311 341 297 246 113 305 204 208 186 205 187 171 151 108 80 113 174 140 217 156 139 61 327 178 178 216 238 262 253 211 194 169 140 212 162 104 349 104 148 139 158 147 140 136 132 130 132 131 129 131 135 143 144 135 120 114
263 267 306 180 192 197 210 256 243 259 283 260 244 310 286 296 289 288 300 284 342 323 335 286 300 278 273 275 307 313 317 317 356 349 297 116 52 252 257 204 190 182 137 147 141 103 129 153 224 142 50 31 12 333 38 14 214 181 221 230 241 228 190 207 147 158 147 167 185 161 161 138 153 151 144 140 140 138 137 136 136 139 145 148 145 135 128 120
224 306 283 314 255 244 236 316 323 292 279 273 233 303 281 264 281 251 258 330 338 317 336 321 291 339 297 300 282 267 2 29 324 354 337 346 347 325 3 350 319 133 128 140 118 123 84 106 116 105 90 21 311 39 18 61 29 23 193 221 221 89 84 88 54 53 94 109 136 148 143 128 138 139 135 135 132 129 127 125 131 148 153 147 136 128 122 113
13 356 317 332 266 261 341 312 290 340 334 351 346 242 255 290 291 320 315 322 343 306 301 286 320 334 341 349 1 0 8 331 162 341 339 22 338 9 339 78 139 306 167 153 111 127 94 315 91 96 76 14 10 1 58 65 82 68 36 40 69 85 74 95 100 93 85 79 98 111 117 111 99 118 120 121 121 123 128 136 147 158 152 135 128 123 118 119
294 226 260 314 321 332 340 335 341 7 335 241 232 299 307 300 349 1 319 316 294 282 284 313 348 0 348 18 43 322 311 327 306 347 346 14 278 321 0 311 4 297 143 78 97 124 100 230 357 83 81 345 30 65 105 88 79 71 43 28 15 71 92 58 101 147 108 124 120 112 115 132 138 130 122 126 132 136 139 144 152 158 137 128 129 127 124 118
316 230 311 360 302 342 334 317 313 349 266 344 351 319 317 311 323 339 333 285 258 254 289 295 310 60 5 36 7 224 280 328 6 329 254 236 234 275 229 249 319 359 302 39 71 105 99 122 77 72 94 21 323 345 10 156 45 26 359 337 348 55 100 74 57 47 129 134 128 153 178 146 141 139 133 139 140 141 142 152 155 141 129 130 128 122 114 108